Time,TemperatureF,DewpointF,PressureIn,WindDirection,WindDirectionDegrees,WindSpeedMPH,WindSpeedGustMPH,Humidity,HourlyPrecipIn,Conditions,Clouds,dailyrainin,SoftwareType,DateUTC
2013-03-31 00:03:00,47.5,43.2,29.89,ESE,123,0.0,0.0,85,0.00,,,0.00,Wunderground v.1.13,2013-03-31 05:03:00,
2013-03-31 00:13:00,47.5,43.2,29.88,ESE,122,0.0,0.0,85,0.00,,,0.00,Wunderground v.1.13,2013-03-31 05:13:00,
2013-03-31 00:23:00,47.4,43.1,29.89,ESE,123,0.0,0.0,85,0.00,,,0.00,Wunderground v.1.13,2013-03-31 05:23:00,
2013-03-31 00:33:00,47.4,43.1,29.89,ESE,123,0.0,0.0,85,0.00,,,0.00,Wunderground v.1.13,2013-03-31 05:33:00,
2013-03-31 00:43:00,47.3,43.0,29.89,ESE,123,0.0,0.0,85,0.00,,,0.00,Wunderground v.1.13,2013-03-31 05:43:00,
2013-03-31 00:53:00,47.4,43.1,29.89,ESE,123,0.0,0.0,85,0.00,,,0.00,Wunderground v.1.13,2013-03-31 05:53:00,
2013-03-31 00:58:00,47.4,43.1,29.89,ESE,122,0.0,0.0,85,0.00,,,0.00,Wunderground v.1.13,2013-03-31 05:58:00,
2013-03-31 01:08:00,47.4,43.1,29.89,ESE,123,0.0,0.0,85,0.00,,,0.00,Wunderground v.1.13,2013-03-31 06:08:00,
2013-03-31 01:13:00,47.4,43.1,29.89,ESE,122,0.0,0.0,85,0.00,,,0.00,Wunderground v.1.13,2013-03-31 06:13:00,
2013-03-31 01:23:00,47.4,43.1,29.88,ESE,122,0.0,0.0,85,0.00,,,0.00,Wunderground v.1.13,2013-03-31 06:23:00,
2013-03-31 01:28:00,47.4,43.1,29.88,ESE,123,0.0,0.0,85,0.00,,,0.00,Wunderground v.1.13,2013-03-31 06:28:00,
2013-03-31 01:33:00,47.4,43.1,29.88,ESE,123,0.0,0.0,85,0.00,,,0.00,Wunderground v.1.13,2013-03-31 06:33:00,
2013-03-31 01:43:00,47.4,43.1,29.87,ESE,123,0.0,0.0,85,0.00,,,0.00,Wunderground v.1.13,2013-03-31 06:43:00,
2013-03-31 01:48:00,47.4,43.1,29.87,ESE,123,0.0,0.0,85,0.00,,,0.00,Wunderground v.1.13,2013-03-31 06:48:00,
2013-03-31 01:58:00,47.4,43.1,29.87,ESE,123,0.0,0.0,85,0.00,,,0.00,Wunderground v.1.13,2013-03-31 06:58:00,
2013-03-31 02:08:00,47.4,43.1,29.87,ESE,123,0.0,0.0,85,0.00,,,0.00,Wunderground v.1.13,2013-03-31 07:08:00,
2013-03-31 02:18:00,47.4,43.1,29.86,ESE,122,0.0,0.0,85,0.00,,,0.00,Wunderground v.1.13,2013-03-31 07:18:00,
2013-03-31 02:23:00,47.4,43.1,29.86,ESE,122,0.0,0.0,85,0.00,,,0.00,Wunderground v.1.13,2013-03-31 07:23:00,
2013-03-31 02:33:00,47.4,43.1,29.86,ESE,122,0.0,0.0,85,0.00,,,0.00,Wunderground v.1.13,2013-03-31 07:33:00,
2013-03-31 02:43:00,47.5,43.2,29.86,ESE,123,0.0,0.0,85,0.00,,,0.00,Wunderground v.1.13,2013-03-31 07:43:00,
2013-03-31 02:53:00,47.5,43.2,29.85,ESE,123,0.0,0.0,85,0.00,,,0.00,Wunderground v.1.13,2013-03-31 07:53:00,
2013-03-31 03:03:00,47.6,43.3,29.85,ESE,122,0.0,0.0,85,0.00,,,0.00,Wunderground v.1.13,2013-03-31 08:03:00,
2013-03-31 03:13:00,47.6,43.3,29.86,ESE,123,0.0,0.0,85,0.00,,,0.00,Wunderground v.1.13,2013-03-31 08:13:00,
2013-03-31 03:23:00,47.7,43.4,29.86,ESE,123,0.0,0.0,85,0.00,,,0.00,Wunderground v.1.13,2013-03-31 08:23:00,
2013-03-31 03:28:00,47.7,43.4,29.85,ESE,122,0.0,0.0,85,0.00,,,0.00,Wunderground v.1.13,2013-03-31 08:28:00,
2013-03-31 03:33:00,47.7,43.4,29.85,ESE,123,0.0,0.0,85,0.00,,,0.00,Wunderground v.1.13,2013-03-31 08:33:00,
2013-03-31 03:38:00,47.8,43.5,29.85,ESE,123,0.0,0.0,85,0.00,,,0.00,Wunderground v.1.13,2013-03-31 08:38:00,
2013-03-31 03:43:00,47.8,43.5,29.85,ESE,122,0.0,0.0,85,0.00,,,0.00,Wunderground v.1.13,2013-03-31 08:43:00,
2013-03-31 03:53:00,47.9,43.6,29.85,ESE,123,0.0,2.0,85,0.00,,,0.00,Wunderground v.1.13,2013-03-31 08:53:00,
2013-03-31 04:03:00,47.9,43.6,29.84,WSW,244,2.0,2.0,85,0.00,,,0.00,Wunderground v.1.13,2013-03-31 09:03:00,
2013-03-31 04:08:00,48.0,43.7,29.84,WSW,249,2.0,2.0,85,0.00,,,0.00,Wunderground v.1.13,2013-03-31 09:08:00,
2013-03-31 04:13:00,48.0,43.7,29.84,WSW,250,3.0,3.0,85,0.00,,,0.00,Wunderground v.1.13,2013-03-31 09:13:00,
2013-03-31 04:23:00,48.0,43.7,29.84,WSW,253,1.0,1.0,85,0.00,,,0.00,Wunderground v.1.13,2013-03-31 09:23:00,
2013-03-31 04:33:00,48.0,43.7,29.84,WSW,253,0.0,2.0,85,0.00,,,0.00,Wunderground v.1.13,2013-03-31 09:33:00,
2013-03-31 04:43:00,48.0,43.7,29.84,WSW,253,1.0,1.0,85,0.00,,,0.00,Wunderground v.1.13,2013-03-31 09:43:00,
2013-03-31 04:53:00,48.1,43.8,29.84,WSW,253,0.0,0.0,85,0.00,,,0.00,Wunderground v.1.13,2013-03-31 09:53:00,
2013-03-31 05:03:00,48.1,43.8,29.84,WSW,253,0.0,0.0,85,0.00,,,0.00,Wunderground v.1.13,2013-03-31 10:03:00,
2013-03-31 05:08:00,48.1,43.8,29.84,WSW,254,0.0,0.0,85,0.00,,,0.00,Wunderground v.1.13,2013-03-31 10:08:00,
2013-03-31 05:13:00,48.0,43.7,29.84,WSW,253,0.0,0.0,85,0.00,,,0.00,Wunderground v.1.13,2013-03-31 10:13:00,
2013-03-31 05:28:00,47.9,43.6,29.84,WSW,254,0.0,0.0,85,0.00,,,0.00,Wunderground v.1.13,2013-03-31 10:28:00,
2013-03-31 05:38:00,47.8,43.5,29.84,WSW,253,0.0,0.0,85,0.00,,,0.00,Wunderground v.1.13,2013-03-31 10:38:00,
2013-03-31 05:43:00,47.7,43.4,29.84,WSW,254,0.0,0.0,85,0.00,,,0.00,Wunderground v.1.13,2013-03-31 10:43:00,
2013-03-31 05:53:00,47.7,43.4,29.84,WSW,253,0.0,0.0,85,0.00,,,0.00,Wunderground v.1.13,2013-03-31 10:53:00,
2013-03-31 06:03:00,47.7,43.4,29.84,WSW,254,0.0,0.0,85,0.00,,,0.00,Wunderground v.1.13,2013-03-31 11:03:00,
2013-03-31 06:13:00,47.8,43.2,29.85,WSW,254,0.0,0.0,84,0.00,,,0.00,Wunderground v.1.13,2013-03-31 11:13:00,
2013-03-31 06:23:00,47.8,43.2,29.85,WSW,254,0.0,0.0,84,0.00,,,0.00,Wunderground v.1.13,2013-03-31 11:23:00,
2013-03-31 06:33:00,47.7,43.1,29.86,WSW,254,0.0,0.0,84,0.00,,,0.00,Wunderground v.1.13,2013-03-31 11:33:00,
2013-03-31 06:43:00,47.8,43.2,29.86,WSW,254,0.0,0.0,84,0.00,,,0.00,Wunderground v.1.13,2013-03-31 11:43:00,
2013-03-31 06:53:00,47.8,43.2,29.85,WSW,253,0.0,0.0,84,0.00,,,0.00,Wunderground v.1.13,2013-03-31 11:53:00,
2013-03-31 06:58:00,47.8,43.2,29.85,WSW,254,0.0,0.0,84,0.00,,,0.00,Wunderground v.1.13,2013-03-31 11:58:00,
2013-03-31 07:03:00,47.8,43.2,29.85,WSW,254,0.0,0.0,84,0.00,,,0.00,Wunderground v.1.13,2013-03-31 12:03:00,
2013-03-31 07:13:00,47.8,43.2,29.86,WSW,254,0.0,0.0,84,0.00,,,0.00,Wunderground v.1.13,2013-03-31 12:13:00,
2013-03-31 07:18:00,47.9,43.3,29.86,WSW,254,1.0,1.0,84,0.00,,,0.00,Wunderground v.1.13,2013-03-31 12:18:00,
2013-03-31 07:28:00,47.9,43.6,29.87,WSW,253,0.0,0.0,85,0.00,,,0.00,Wunderground v.1.13,2013-03-31 12:28:00,
2013-03-31 07:33:00,48.0,43.7,29.88,WSW,253,0.0,0.0,85,0.00,,,0.00,Wunderground v.1.13,2013-03-31 12:33:00,
2013-03-31 07:43:00,48.0,43.4,29.88,WSW,254,0.0,0.0,84,0.00,,,0.00,Wunderground v.1.13,2013-03-31 12:43:00,
2013-03-31 07:53:00,48.0,43.4,29.89,WSW,252,0.0,0.0,84,0.00,,,0.00,Wunderground v.1.13,2013-03-31 12:53:00,
2013-03-31 07:58:00,48.1,43.5,29.89,WSW,252,0.0,0.0,84,0.00,,,0.00,Wunderground v.1.13,2013-03-31 12:58:00,
2013-03-31 08:03:00,48.1,43.5,29.89,WSW,252,0.0,0.0,84,0.00,,,0.00,Wunderground v.1.13,2013-03-31 13:03:00,
2013-03-31 08:13:00,48.2,43.6,29.89,WSW,252,0.0,0.0,84,0.00,,,0.00,Wunderground v.1.13,2013-03-31 13:13:00,
2013-03-31 08:23:00,48.3,43.7,29.89,WSW,252,0.0,1.0,84,0.00,,,0.00,Wunderground v.1.13,2013-03-31 13:23:00,
2013-03-31 08:33:00,48.4,43.8,29.89,WSW,256,1.0,1.0,84,0.00,,,0.00,Wunderground v.1.13,2013-03-31 13:33:00,
2013-03-31 08:43:00,48.6,44.0,29.89,WSW,257,0.0,0.0,84,0.00,,,0.00,Wunderground v.1.13,2013-03-31 13:43:00,
2013-03-31 08:48:00,48.6,44.0,29.89,WSW,256,1.0,1.0,84,0.00,,,0.00,Wunderground v.1.13,2013-03-31 13:48:00,
2013-03-31 08:53:00,48.7,44.1,29.90,WSW,256,1.0,1.0,84,0.00,,,0.00,Wunderground v.1.13,2013-03-31 13:53:00,
2013-03-31 09:03:00,48.8,44.2,29.90,WSW,256,0.0,0.0,84,0.00,,,0.00,Wunderground v.1.13,2013-03-31 14:03:00,
2013-03-31 09:08:00,48.9,44.3,29.90,WSW,256,1.0,2.0,84,0.00,,,0.00,Wunderground v.1.13,2013-03-31 14:08:00,
2013-03-31 09:13:00,48.9,44.3,29.90,WNW,293,1.0,1.0,84,0.00,,,0.00,Wunderground v.1.13,2013-03-31 14:13:00,
2013-03-31 09:23:00,49.0,44.4,29.90,WNW,292,1.0,1.0,84,0.00,,,0.00,Wunderground v.1.13,2013-03-31 14:23:00,
2013-03-31 09:33:00,49.1,44.5,29.90,WNW,290,0.0,3.0,84,0.00,,,0.00,Wunderground v.1.13,2013-03-31 14:33:00,
2013-03-31 09:43:00,49.2,44.6,29.90,WNW,290,1.0,1.0,84,0.00,,,0.00,Wunderground v.1.13,2013-03-31 14:43:00,
2013-03-31 09:53:00,49.2,44.6,29.90,WNW,290,0.0,0.0,84,0.00,,,0.00,Wunderground v.1.13,2013-03-31 14:53:00,
2013-03-31 09:58:00,49.4,44.5,29.91,WNW,290,0.0,3.0,83,0.00,,,0.00,Wunderground v.1.13,2013-03-31 14:58:00,
2013-03-31 10:03:00,49.5,44.6,29.90,WNW,290,1.0,1.0,83,0.00,,,0.00,Wunderground v.1.13,2013-03-31 15:03:00,
2013-03-31 10:13:00,49.6,44.6,29.89,South,186,5.0,5.0,83,0.00,,,0.00,Wunderground v.1.13,2013-03-31 15:13:00,
2013-03-31 10:23:00,49.9,44.9,29.90,South,184,4.0,4.0,83,0.00,,,0.00,Wunderground v.1.13,2013-03-31 15:23:00,
2013-03-31 10:28:00,50.0,46.0,29.90,South,184,2.0,6.0,86,0.00,,,0.00,Wunderground v.1.13,2013-03-31 15:28:00,
2013-03-31 10:38:00,50.1,44.8,29.89,South,184,2.0,2.0,82,0.00,,,0.00,Wunderground v.1.13,2013-03-31 15:38:00,
2013-03-31 10:43:00,50.4,45.1,29.89,South,184,0.0,0.0,82,0.00,,,0.00,Wunderground v.1.13,2013-03-31 15:43:00,
2013-03-31 10:53:00,50.5,45.2,29.90,South,184,0.0,0.0,82,0.00,,,0.00,Wunderground v.1.13,2013-03-31 15:53:00,
2013-03-31 11:03:00,51.0,45.4,29.90,SW,214,0.0,0.0,81,0.00,,,0.00,Wunderground v.1.13,2013-03-31 16:03:00,
2013-03-31 11:13:00,51.5,45.9,29.90,West,267,2.0,2.0,81,0.00,,,0.00,Wunderground v.1.13,2013-03-31 16:13:00,
2013-03-31 11:18:00,52.0,46.3,29.89,West,267,1.0,2.0,81,0.00,,,0.00,Wunderground v.1.13,2013-03-31 16:18:00,
2013-03-31 11:23:00,52.0,46.0,29.89,West,267,1.0,1.0,80,0.00,,,0.00,Wunderground v.1.13,2013-03-31 16:23:00,
2013-03-31 11:33:00,52.3,46.3,29.88,West,266,2.0,2.0,80,0.00,,,0.00,Wunderground v.1.13,2013-03-31 16:33:00,
2013-03-31 11:43:00,53.8,47.8,29.87,West,268,0.0,0.0,80,0.00,,,0.00,Wunderground v.1.13,2013-03-31 16:43:00,
2013-03-31 11:53:00,54.1,47.4,29.87,West,261,1.0,1.0,78,0.00,,,0.00,Wunderground v.1.13,2013-03-31 16:53:00,
2013-03-31 12:03:00,55.0,48.3,29.86,WSW,258,0.0,5.0,78,0.00,,,0.00,Wunderground v.1.13,2013-03-31 17:03:00,
2013-03-31 12:13:00,54.6,47.9,29.86,West,260,1.0,2.0,78,0.00,,,0.00,Wunderground v.1.13,2013-03-31 17:13:00,
2013-03-31 12:18:00,54.9,48.2,29.86,West,259,1.0,1.0,78,0.00,,,0.00,Wunderground v.1.13,2013-03-31 17:18:00,
2013-03-31 12:23:00,55.5,48.8,29.86,West,259,1.0,1.0,78,0.00,,,0.00,Wunderground v.1.13,2013-03-31 17:23:00,
2013-03-31 12:33:00,56.5,48.7,29.86,WSW,256,1.0,1.0,75,0.00,,,0.00,Wunderground v.1.13,2013-03-31 17:33:00,
2013-03-31 12:43:00,57.1,49.2,29.86,WSW,255,1.0,4.0,75,0.00,,,0.00,Wunderground v.1.13,2013-03-31 17:43:00,
2013-03-31 12:48:00,57.3,49.1,29.86,West,259,2.0,2.0,74,0.00,,,0.00,Wunderground v.1.13,2013-03-31 17:48:00,
2013-03-31 12:58:00,57.6,49.4,29.86,West,260,1.0,1.0,74,0.00,,,0.00,Wunderground v.1.13,2013-03-31 17:58:00,
2013-03-31 13:03:00,57.7,49.1,29.86,West,271,2.0,2.0,73,0.00,,,0.00,Wunderground v.1.13,2013-03-31 18:03:00,
2013-03-31 13:13:00,58.2,49.6,29.86,West,271,1.0,1.0,73,0.00,,,0.00,Wunderground v.1.13,2013-03-31 18:13:00,
2013-03-31 13:18:00,58.6,50.0,29.86,WNW,283,1.0,1.0,73,0.00,,,0.00,Wunderground v.1.13,2013-03-31 18:18:00,
2013-03-31 13:28:00,58.7,49.3,29.86,West,281,2.0,2.0,71,0.00,,,0.00,Wunderground v.1.13,2013-03-31 18:28:00,
2013-03-31 13:33:00,59.0,50.0,29.86,West,265,2.0,7.0,72,0.00,,,0.00,Wunderground v.1.13,2013-03-31 18:33:00,
2013-03-31 13:43:00,59.6,49.4,29.86,West,261,2.0,2.0,69,0.00,,,0.00,Wunderground v.1.13,2013-03-31 18:43:00,
2013-03-31 13:53:00,60.0,48.2,29.86,West,272,4.0,7.0,65,0.00,,,0.00,Wunderground v.1.13,2013-03-31 18:53:00,
2013-03-31 14:03:00,60.3,48.9,29.85,West,267,4.0,6.0,66,0.00,,,0.00,Wunderground v.1.13,2013-03-31 19:03:00,
2013-03-31 14:08:00,60.6,51.1,29.85,West,271,3.0,5.0,71,0.00,,,0.00,Wunderground v.1.13,2013-03-31 19:08:00,
2013-03-31 14:13:00,60.8,50.2,29.85,West,267,4.0,4.0,68,0.00,,,0.00,Wunderground v.1.13,2013-03-31 19:13:00,
2013-03-31 14:23:00,61.1,49.2,29.85,WNW,286,2.0,7.0,65,0.00,,,0.00,Wunderground v.1.13,2013-03-31 19:23:00,
2013-03-31 14:28:00,61.3,49.8,29.85,WSW,252,3.0,4.0,66,0.00,,,0.00,Wunderground v.1.13,2013-03-31 19:28:00,
2013-03-31 14:38:00,61.7,49.0,29.84,WSW,254,4.0,4.0,63,0.00,,,0.00,Wunderground v.1.13,2013-03-31 19:38:00,
2013-03-31 14:48:00,62.3,49.1,29.84,NNW,327,5.0,5.0,62,0.00,,,0.00,Wunderground v.1.13,2013-03-31 19:48:00,
2013-03-31 14:53:00,62.4,49.6,29.84,WNW,292,4.0,5.0,63,0.00,,,0.00,Wunderground v.1.13,2013-03-31 19:53:00,
2013-03-31 15:03:00,63.0,49.8,29.84,NNW,328,3.0,3.0,62,0.00,,,0.00,Wunderground v.1.13,2013-03-31 20:03:00,
2013-03-31 15:13:00,63.6,48.1,29.83,NW,304,6.0,6.0,57,0.00,,,0.00,Wunderground v.1.13,2013-03-31 20:13:00,
2013-03-31 15:23:00,63.6,48.1,29.83,West,277,6.0,6.0,57,0.00,,,0.00,Wunderground v.1.13,2013-03-31 20:23:00,
2013-03-31 15:33:00,64.0,49.8,29.83,NW,321,5.0,5.0,60,0.00,,,0.00,Wunderground v.1.13,2013-03-31 20:33:00,
2013-03-31 15:38:00,64.0,47.5,29.83,WNW,303,6.0,7.0,55,0.00,,,0.00,Wunderground v.1.13,2013-03-31 20:38:00,
2013-03-31 15:48:00,64.3,47.3,29.83,WSW,247,4.0,4.0,54,0.00,,,0.00,Wunderground v.1.13,2013-03-31 20:48:00,
2013-03-31 15:53:00,64.6,45.5,29.83,NW,307,6.0,9.0,50,0.00,,,0.00,Wunderground v.1.13,2013-03-31 20:53:00,
2013-03-31 15:58:00,64.8,46.2,29.83,West,270,7.0,10.0,51,0.00,,,0.00,Wunderground v.1.13,2013-03-31 20:58:00,
2013-03-31 16:03:00,65.1,46.5,29.83,NW,309,8.0,9.0,51,0.00,,,0.00,Wunderground v.1.13,2013-03-31 21:03:00,
2013-03-31 16:13:00,65.2,45.0,29.83,WNW,292,7.0,7.0,48,0.00,,,0.00,Wunderground v.1.13,2013-03-31 21:13:00,
2013-03-31 16:23:00,64.8,46.2,29.83,WNW,298,7.0,7.0,51,0.00,,,0.00,Wunderground v.1.13,2013-03-31 21:23:00,
2013-03-31 16:33:00,64.8,45.7,29.83,NNW,348,6.0,6.0,50,0.00,,,0.00,Wunderground v.1.13,2013-03-31 21:33:00,
2013-03-31 16:38:00,64.5,46.0,29.82,NW,316,6.0,6.0,51,0.00,,,0.00,Wunderground v.1.13,2013-03-31 21:38:00,
2013-03-31 16:43:00,64.2,45.7,29.82,NNW,338,6.0,6.0,51,0.00,,,0.00,Wunderground v.1.13,2013-03-31 21:43:00,
2013-03-31 16:53:00,64.4,44.3,29.82,NW,316,7.0,9.0,48,0.00,,,0.00,Wunderground v.1.13,2013-03-31 21:53:00,
2013-03-31 16:58:00,64.7,45.1,29.82,NW,309,6.0,6.0,49,0.00,,,0.00,Wunderground v.1.13,2013-03-31 21:58:00,
2013-03-31 17:08:00,64.5,44.9,29.82,NW,307,7.0,7.0,49,0.00,,,0.00,Wunderground v.1.13,2013-03-31 22:08:00,
2013-03-31 17:13:00,64.6,45.5,29.82,NW,321,6.0,6.0,50,0.00,,,0.00,Wunderground v.1.13,2013-03-31 22:13:00,
2013-03-31 17:23:00,64.4,46.4,29.81,NW,306,3.0,4.0,52,0.00,,,0.00,Wunderground v.1.13,2013-03-31 22:23:00,
2013-03-31 17:28:00,64.7,46.1,29.81,NW,308,4.0,6.0,51,0.00,,,0.00,Wunderground v.1.13,2013-03-31 22:28:00,
2013-03-31 17:38:00,64.7,45.6,29.81,WNW,301,5.0,5.0,50,0.00,,,0.00,Wunderground v.1.13,2013-03-31 22:38:00,
2013-03-31 17:43:00,64.8,44.6,29.82,WNW,302,4.0,4.0,48,0.00,,,0.00,Wunderground v.1.13,2013-03-31 22:43:00,
2013-03-31 17:53:00,64.6,44.5,29.81,WNW,302,4.0,4.0,48,0.00,,,0.00,Wunderground v.1.13,2013-03-31 22:53:00,
2013-03-31 17:58:00,64.5,46.5,29.81,NNW,329,4.0,4.0,52,0.00,,,0.00,Wunderground v.1.13,2013-03-31 22:58:00,
2013-03-31 18:03:00,64.5,44.9,29.82,WNW,294,3.0,3.0,49,0.00,,,0.00,Wunderground v.1.13,2013-03-31 23:03:00,
2013-03-31 18:13:00,64.7,45.1,29.82,WNW,303,3.0,4.0,49,0.00,,,0.00,Wunderground v.1.13,2013-03-31 23:13:00,
2013-03-31 18:23:00,64.2,45.2,29.82,WNW,300,2.0,2.0,50,0.00,,,0.00,Wunderground v.1.13,2013-03-31 23:23:00,
2013-03-31 18:33:00,64.0,45.0,29.82,WNW,302,0.0,0.0,50,0.00,,,0.00,Wunderground v.1.13,2013-03-31 23:33:00,
2013-03-31 18:38:00,63.8,45.3,29.82,WNW,302,0.0,0.0,51,0.00,,,0.00,Wunderground v.1.13,2013-03-31 23:38:00,
2013-03-31 18:43:00,63.4,44.4,29.82,NW,309,0.0,0.0,50,0.00,,,0.00,Wunderground v.1.13,2013-03-31 23:43:00,
2013-03-31 18:53:00,62.9,44.5,29.82,NW,309,0.0,0.0,51,0.00,,,0.00,Wunderground v.1.13,2013-03-31 23:53:00,
2013-03-31 19:03:00,62.1,44.3,29.82,NW,309,0.0,0.0,52,0.00,,,0.00,Wunderground v.1.13,2013-04-01 00:03:00,
2013-03-31 19:08:00,61.8,44.0,29.82,NW,309,0.0,0.0,52,0.00,,,0.00,Wunderground v.1.13,2013-04-01 00:08:00,
2013-03-31 19:13:00,61.7,43.9,29.82,NW,309,0.0,0.0,52,0.00,,,0.00,Wunderground v.1.13,2013-04-01 00:13:00,
2013-03-31 19:23:00,60.9,44.1,29.82,NW,309,0.0,0.0,54,0.00,,,0.00,Wunderground v.1.13,2013-04-01 00:23:00,
2013-03-31 19:28:00,60.5,43.8,29.82,NW,309,0.0,0.0,54,0.00,,,0.00,Wunderground v.1.13,2013-04-01 00:28:00,
2013-03-31 19:33:00,60.2,44.4,29.82,NW,309,0.0,0.0,56,0.00,,,0.00,Wunderground v.1.13,2013-04-01 00:33:00,
2013-03-31 19:43:00,59.6,44.3,29.82,NW,309,0.0,0.0,57,0.00,,,0.00,Wunderground v.1.13,2013-04-01 00:43:00,
2013-03-31 19:48:00,59.3,44.5,29.83,NW,315,0.0,0.0,58,0.00,,,0.00,Wunderground v.1.13,2013-04-01 00:48:00,
2013-03-31 19:53:00,59.0,44.2,29.82,NW,315,0.0,0.0,58,0.00,,,0.00,Wunderground v.1.13,2013-04-01 00:53:00,
2013-03-31 20:03:00,58.2,43.9,29.83,NW,314,0.0,0.0,59,0.00,,,0.00,Wunderground v.1.13,2013-04-01 01:03:00,
2013-03-31 20:13:00,57.4,43.6,29.83,NW,315,0.0,0.0,60,0.00,,,0.00,Wunderground v.1.13,2013-04-01 01:13:00,
2013-03-31 20:23:00,57.0,43.2,29.83,NNW,327,0.0,0.0,60,0.00,,,0.00,Wunderground v.1.13,2013-04-01 01:23:00,
2013-03-31 20:28:00,57.3,43.1,29.83,NNW,344,0.0,0.0,59,0.00,,,0.00,Wunderground v.1.13,2013-04-01 01:28:00,
2013-03-31 20:38:00,52.7,42.8,29.84,SSE,167,0.0,0.0,69,0.00,,,0.00,Wunderground v.1.13,2013-04-01 01:38:00,
2013-03-31 20:43:00,51.3,42.6,29.84,SSE,167,0.0,0.0,72,0.00,,,0.00,Wunderground v.1.13,2013-04-01 01:43:00,
2013-03-31 20:48:00,51.2,42.8,29.84,SSE,167,0.0,0.0,73,0.00,,,0.00,Wunderground v.1.13,2013-04-01 01:48:00,
2013-03-31 20:53:00,53.0,43.1,29.84,SSE,167,0.0,0.0,69,0.00,,,0.00,Wunderground v.1.13,2013-04-01 01:53:00,
2013-03-31 21:03:00,55.7,42.5,29.84,SSE,167,0.0,0.0,61,0.00,,,0.00,Wunderground v.1.13,2013-04-01 02:03:00,
2013-03-31 21:13:00,57.1,42.5,29.84,SW,215,2.0,2.0,58,0.00,,,0.00,Wunderground v.1.13,2013-04-01 02:13:00,
2013-03-31 21:18:00,56.4,42.7,29.84,SW,232,1.0,1.0,60,0.00,,,0.00,Wunderground v.1.13,2013-04-01 02:18:00,
2013-03-31 21:23:00,56.0,42.7,29.84,WNW,296,0.0,0.0,61,0.00,,,0.00,Wunderground v.1.13,2013-04-01 02:23:00,
2013-03-31 21:33:00,55.9,42.2,29.84,WNW,296,0.0,0.0,60,0.00,,,0.00,Wunderground v.1.13,2013-04-01 02:33:00,
2013-03-31 21:38:00,55.8,41.7,29.85,WNW,296,0.0,0.0,59,0.00,,,0.00,Wunderground v.1.13,2013-04-01 02:38:00,
2013-03-31 21:43:00,55.8,42.5,29.85,WNW,296,0.0,0.0,61,0.00,,,0.00,Wunderground v.1.13,2013-04-01 02:43:00,
2013-03-31 21:53:00,52.1,41.9,29.85,SW,214,0.0,0.0,68,0.00,,,0.00,Wunderground v.1.13,2013-04-01 02:53:00,
2013-03-31 22:03:00,52.2,41.6,29.86,SW,214,0.0,0.0,67,0.00,,,0.00,Wunderground v.1.13,2013-04-01 03:03:00,
2013-03-31 22:13:00,53.0,41.5,29.86,SW,215,0.0,0.0,65,0.00,,,0.00,Wunderground v.1.13,2013-04-01 03:13:00,
2013-03-31 22:18:00,53.4,41.5,29.86,SW,214,0.0,0.0,64,0.00,,,0.00,Wunderground v.1.13,2013-04-01 03:18:00,
2013-03-31 22:23:00,53.9,41.2,29.86,NW,307,0.0,1.0,62,0.00,,,0.00,Wunderground v.1.13,2013-04-01 03:23:00,
2013-03-31 22:33:00,56.1,41.5,29.85,NNW,335,3.0,3.0,58,0.00,,,0.00,Wunderground v.1.13,2013-04-01 03:33:00,
2013-03-31 22:43:00,57.5,41.0,29.85,NW,317,4.0,7.0,54,0.00,,,0.00,Wunderground v.1.13,2013-04-01 03:43:00,
2013-03-31 22:48:00,57.8,41.3,29.85,NNW,328,6.0,6.0,54,0.00,,,0.00,Wunderground v.1.13,2013-04-01 03:48:00,
2013-03-31 22:58:00,57.9,41.3,29.86,NW,313,4.0,4.0,54,0.00,,,0.00,Wunderground v.1.13,2013-04-01 03:58:00,
2013-03-31 23:03:00,57.8,41.3,29.86,NW,317,4.0,5.0,54,0.00,,,0.00,Wunderground v.1.13,2013-04-01 04:03:00,
2013-03-31 23:13:00,57.5,41.4,29.86,North,349,2.0,2.0,55,0.00,,,0.00,Wunderground v.1.13,2013-04-01 04:13:00,
2013-03-31 23:18:00,57.2,41.6,29.87,NW,309,1.0,1.0,56,0.00,,,0.00,Wunderground v.1.13,2013-04-01 04:18:00,
2013-03-31 23:23:00,56.9,41.8,29.87,West,266,1.0,1.0,57,0.00,,,0.00,Wunderground v.1.13,2013-04-01 04:23:00,
2013-03-31 23:28:00,56.4,41.8,29.87,West,265,0.0,0.0,58,0.00,,,0.00,Wunderground v.1.13,2013-04-01 04:28:00,
2013-03-31 23:33:00,55.6,41.9,29.88,West,266,0.0,0.0,60,0.00,,,0.00,Wunderground v.1.13,2013-04-01 04:33:00,
2013-03-31 23:38:00,55.4,41.7,29.88,West,266,0.0,0.0,60,0.00,,,0.00,Wunderground v.1.13,2013-04-01 04:38:00,
2013-03-31 23:43:00,54.7,41.9,29.88,West,266,0.0,0.0,62,0.00,,,0.00,Wunderground v.1.13,2013-04-01 04:43:00,
2013-03-31 23:53:00,54.2,42.3,29.87,NNE,17,1.0,1.0,64,0.00,,,0.00,Wunderground v.1.13,2013-04-01 04:53:00,
2013-03-31 23:58:00,53.9,42.4,29.87,North,5,3.0,5.0,65,0.00,,,0.00,Wunderground v.1.13,2013-04-01 04:58:00,